Retour au catalogue

STARLINK-30610

ActifCommunicationsVLEO
NORAD 58082·PAYLOAD·🇺🇸 United States

Lancé Oct 18, 2023 depuis Cape Canaveral Space Force Station

Loading…

Prochains Passages (prochaines 24 heures)

TLE

FraisSource: CelesTrak SupGP

Époque: Sep 15, 2026, 02:10 UTC

1 58082C 23160H   26258.09076389  .00005332  00000+0  19306-3 0  2582
2 58082  43.0030  88.6076 0001960 271.2082 249.3409 15.27586005    19

Suivez STARLINK-30610 en temps réel avec AllMySat

Download on the App Store